Weather History for Point Mugu, CA

Change the Weather History Date:

Saturday, October 26, 2013

  Actual Average Record
Temperature  
Mean Temperature 60 °F -  
Max Temperature 70 °F 67 °F 85 °F (2003)
Min Temperature 51 °F 50 °F 46 °F (1999)
Degree Days  
Heating Degree Days 4    
Growing Degree Days 10 (Base 50)    
Moisture  
Dew Point 56 °F    
Average Humidity 79    
Maximum Humidity 97    
Minimum Humidity 63    
Precipitation  
Precipitation 0.00 in - - ()
Sea Level Pressure  
Sea Level Pressure 30.01 in    
Wind  
Wind Speed 5 mph (NW)    
Max Wind Speed 13 mph    
Max Gust Speed -    
Visibility 5 miles    
Events Fog    
Averages and records for this station are not official NWS values.
T = Trace of Precipitation, MM = Missing Value Source: NWS Daily Summary

Daily Weather History Graph

Daily Weather History Graph

Search for Another Location

Airport:

Trip Planner

Search our weather history database for the weather conditions in past years. The results will help you decide how hot, cold, wet, or windy it might be!

Date:

Astronomy

Oct. 26, 2013 Rise Set
Actual Time 7:11 AM PDT 6:09 PM PDT
Civil Twilight 6:45 AM PDT 6:34 PM PDT
Nautical Twilight 6:16 AM PDT 7:04 PM PDT
Astronomical Twilight 5:46 AM PDT 7:33 PM PDT
Moon No Moon Rise 1:27 PM PDT (10/26)
Length of Visible Light 11h 49m
Length of Day
10h 58m
Waning Gibbous, 52% of the Moon is Illuminated
Oct 26
Waning Gibbous
Oct 26
Last Quarter
Nov 3
New
Nov 9
First Quarter
Nov 17
Full

Hourly Weather History & Observations

Time (PDT) Temp. Dew Point Humidity Pressure Visibility Wind Dir Wind Speed Gust Speed Precip Events Conditions
6:54 AM 52.0 °F 51.1 °F 97% 29.82 in 0.2 mi ENE 3.5 mph - N/A Fog Fog
7:30 AM 51.8 °F 50.0 °F 94% 30.07 in 1.0 mi ENE 3.5 mph - N/A   Scattered Clouds
7:54 AM 53.1 °F 51.1 °F 93% 30.07 in 4.0 mi Calm Calm - N/A   Scattered Clouds
8:54 AM 57.0 °F 53.1 °F 87% 30.08 in 4.0 mi NNE 3.5 mph - N/A   Scattered Clouds
9:54 AM 64.9 °F 55.9 °F 73% 30.09 in 4.0 mi Calm Calm - N/A   Haze
10:54 AM 68.0 °F 57.9 °F 70% 30.08 in 4.0 mi WSW 5.8 mph - N/A   Haze
11:53 AM 68.0 °F 55.9 °F 65% 30.08 in 4.0 mi West 9.2 mph - N/A   Haze
12:54 PM 70.0 °F 57.9 °F 65% 30.06 in 4.0 mi West 10.4 mph - N/A   Haze
1:53 PM 69.1 °F 57.9 °F 68% 30.04 in 4.0 mi West 12.7 mph - N/A   Haze
2:54 PM 70.0 °F 57.0 °F 63% 30.00 in 6.0 mi NW 8.1 mph - N/A   Haze
3:54 PM 66.9 °F 57.9 °F 73% 30.00 in 7.0 mi West 9.2 mph - N/A   Scattered Clouds
4:54 PM 69.1 °F 57.0 °F 65% 29.99 in 7.0 mi WNW 4.6 mph - N/A   Scattered Clouds
5:54 PM 66.9 °F 57.9 °F 73% 29.99 in 7.0 mi NW 5.8 mph - N/A   Scattered Clouds
6:54 PM 64.0 °F 57.9 °F 80% 29.97 in 7.0 mi NW 9.2 mph - N/A   Partly Cloudy
7:54 PM 62.1 °F 57.9 °F 86% 29.97 in 7.0 mi NNW 5.8 mph - N/A   Partly Cloudy
8:54 PM 61.0 °F 57.9 °F 90% 29.97 in 6.0 mi North 4.6 mph - N/A   Partly Cloudy
9:54 PM 60.1 °F 57.0 °F 90% 29.99 in 4.0 mi NNE 3.5 mph - N/A   Clear
10:54 PM 60.1 °F 57.0 °F 90% 29.99 in 6.0 mi NNE 4.6 mph - N/A   Clear
11:11 PM 60.8 °F 57.2 °F 88% 29.98 in 6.0 mi NNW 2.3 mph - N/A   Scattered Clouds